Back to catalog

CZ-6A DEB

AlivePO
NORAD 60793·DEBRIS·🇨🇳 China

Launched Aug 6, 2024 from Taiyuan Satellite Launch Center

Loading…

Next Passes (next 24 hours)

TLE

FreshSource: Space-Track

Epoch: Sep 14, 2026, 10:47 UTC

1 60793U 24140FU  26257.44933200  .00000077  00000-0  32879-4 0  9990
2 60793  89.0245 268.0490 0064833 270.9949  88.3810 14.14284070107892

Track CZ-6A DEB in real time with AllMySat

Download on the App Store